Voltar ao catálogo

OSCAR 15

UOSAT 4

AtivoRádio AmadorSSO
NORAD 20438·PAYLOAD·🇬🇧 United Kingdom

Lançado Jan 22, 1990 de Guiana Space Centre

Loading…

Próximas Passagens (próximas 24 horas)

TLE

AtualizadoSource: Space-Track

Época: Sep 14, 2026, 15:42 UTC

1 20438U 90005C   26257.65470712  .00000026  00000-0  26640-4 0  9995
2 20438  98.7747 315.2950 0010901  89.6536  63.2915 14.31734713913029

Acompanhe OSCAR 15 em tempo real com AllMySat

Download on the App Store